Location: Lobstick
(53.6000°N, 115.1667°W)
Time: 14:38:05
(UTC+00:00)

Gurwin Techsat 1B - Pass Details

Date: 29 November 2023
Orbit: 810 x 813 km, 98.9° (Epoch: 28 February)

Event Time Altitude Azimuth Distance (km) Brightness Sun altitude
Rises 10:36:20 0° 19° (NNE) 3,350 12.3 -42.2°
Reaches altitude 10° 10:38:48 10° 26° (NNE) 2,414 11.5 -41.9°
Enters shadow 10:39:16 12° 28° (NNE) 2,247 11.3 -41.8°
